Wind_Speed
6 5 4 4 4 4 6 7 8 9 9 10 11 11 10 9 8 5 4 3 1 1 1 2 2 3 3 3 3 2 2 2 2 2 2 2 3 3 4 4 5 5 5 5 4 5 5 5 5
5 5 4 3 3 3 5 7 9 11 11 11 10 10 10 8 7 6 5 3 1 1 2 3 3 3 3 3 3 2 2 2 2 1 1 2 2 3 3 3 3 3 3 3 4 4 4 5 5
5 4 4 3 2 4 5 6 9 12 13 12 12 11 9 7 6 5 5 3 2 1 2 4 4 4 4 4 3 3 2 2 1 1 0 1 1 2 2 2 2 2 2 2 3 3 3 4 4
5 5 4 4 4 3 4 5 7 11 13 12 12 12 9 8 6 6 5 4 2 1 2 4 5 5 5 5 4 3 3 2 2 2 1 1 1 1 1 1 0 1 1 1 2 2 2 2 3
6 5 5 5 6 4 4 4 7 12 14 14 14 12 9 8 7 6 5 4 2 1 2 4 5 6 6 6 6 5 4 3 3 3 2 2 1 1 1 1 1 0 0 1 1 1 1 1 2
6 6 6 7 8 6 4 5 8 12 15 15 14 12 10 8 7 6 5 4 3 2 2 5 6 6 7 7 7 6 5 4 4 4 3 3 2 2 1 1 1 1 1 1 0 1 1 1 2
7 7 7 7 7 5 5 6 9 14 16 15 14 12 12 8 6 6 5 4 3 3 3 5 6 7 8 8 8 7 6 6 5 4 4 4 3 2 2 2 1 1 1 1 0 0 1 2 2
8 8 9 9 7 6 5 6 8 12 15 15 14 13 11 9 6 5 5 4 4 4 4 5 6 7 8 8 8 8 7 6 6 5 4 4 4 3 2 2 2 2 2 1 1 0 1 2 2
9 9 10 9 7 7 6 7 8 11 13 14 13 13 12 9 7 6 6 5 4 5 5 6 7 7 8 9 9 9 8 7 7 6 5 5 4 4 3 3 2 2 2 2 1 1 1 2 2
10 10 10 9 8 7 8 8 11 12 15 13 13 13 12 10 8 7 7 7 6 6 6 7 8 8 9 10 10 9 9 8 8 7 6 6 5 5 4 4 3 3 3 2 2 2 2 2 2
12 12 12 11 10 8 8 10 13 14 16 15 14 14 13 10 8 8 7 7 7 7 7 8 9 10 10 10 11 10 10 9 9 9 7 7 7 6 5 5 5 4 4 3 3 3 2 2 2
14 14 14 13 12 11 10 12 15 16 16 16 13 14 14 11 10 8 8 8 7 7 6 7 9 9 10 11 11 11 11 11 11 10 9 7 7 7 7 7 6 5 5 4 3 3 3 3 3
16 17 17 15 13 13 13 14 16 16 16 15 14 14 13 12 11 9 8 8 8 7 8 8 9 10 11 12 11 11 11 12 12 12 10 9 8 8 8 8 7 6 5 5 4 4 4 4 3
18 18 18 15 15 15 15 15 17 18 17 15 15 14 12 12 12 10 9 8 8 8 9 9 9 11 12 12 12 12 12 12 12 12 12 11 10 10 9 8 8 7 6 6 5 5 5 5 4
19 18 17 15 15 15 15 14 15 16 16 15 16 14 12 12 12 11 10 10 9 9 10 10 10 11 13 13 13 12 12 12 12 13 13 12 11 11 10 9 9 8 7 7 7 6 6 6 5
19 18 16 14 14 14 15 13 14 15 15 15 15 14 13 13 12 12 11 11 9 9 10 10 10 11 12 13 14 13 13 13 13 12 13 13 12 11 10 10 9 9 8 8 7 7 7 6 6
18 17 15 13 13 13 14 13 12 14 15 15 14 14 14 13 12 12 12 12 10 10 10 11 10 11 12 12 13 14 14 15 14 13 13 13 13 12 11 10 9 9 9 9 8 8 8 7 6
18 18 17 14 13 13 13 13 12 13 15 16 15 15 14 13 12 12 12 12 11 11 12 11 11 12 13 13 13 14 15 15 15 13 13 14 13 13 12 11 10 9 9 9 8 8 8 7 6
20 20 17 14 14 13 13 12 13 14 15 16 16 16 15 13 12 12 12 12 11 11 11 12 12 13 13 14 14 15 15 16 15 14 14 14 14 13 13 12 11 10 10 10 9 9 8 7 6
22 20 17 14 13 13 14 14 15 15 16 17 17 16 15 15 14 13 13 12 12 12 12 13 13 13 14 14 15 16 16 16 15 15 14 15 15 15 14 14 13 12 11 11 10 9 9 8 7
22 19 16 15 14 15 16 17 17 17 17 16 15 15 15 16 15 14 14 12 12 12 13 13 13 13 14 14 15 15 16 16 15 14 14 15 16 15 14 14 14 13 12 12 11 10 10 9 8
21 18 17 17 17 17 17 18 18 17 16 15 14 13 13 14 15 14 13 12 13 13 13 12 13 13 14 15 13 14 15 16 15 15 16 15 15 15 15 14 14 13 13 12 12 12 11 10 8
21 19 19 20 20 20 20 20 17 18 19 17 16 13 11 12 14 14 13 13 13 12 11 11 11 11 12 13 13 14 16 16 16 16 17 16 16 15 16 15 15 14 14 13 13 13 12 11 10
20 20 21 23 24 22 21 21 19 19 19 18 15 12 11 11 11 12 12 12 12 11 10 10 10 10 11 12 12 13 15 16 16 16 16 17 16 16 15 15 15 16 15 15 14 13 13 13 12
22 22 23 24 24 22 20 21 19 19 19 17 14 12 11 11 11 11 11 11 10 10 9 9 10 9 10 11 12 13 14 15 15 17 17 17 17 17 17 16 17 16 16 15 15 14 14 13 13
23 23 23 22 22 20 20 21 20 20 18 16 14 12 11 11 11 11 11 10 9 9 8 9 9 9 9 10 12 13 14 15 15 16 18 18 18 18 18 18 17 17 17 16 16 15 14 14 15
22 23 22 21 20 19 18 18 18 18 17 16 15 13 10 9 9 10 10 9 9 9 9 9 9 9 9 10 11 13 14 15 16 18 18 18 18 19 19 19 18 18 18 17 17 16 15 15 15
20 20 21 22 21 20 17 15 14 15 15 15 16 13 9 10 9 8 8 7 8 9 9 9 10 10 9 9 10 11 13 14 16 17 17 18 18 19 20 20 19 19 18 18 18 17 16 16 16
21 22 22 22 22 21 18 16 14 15 15 15 14 12 11 10 9 8 8 8 8 9 9 9 9 10 10 10 10 11 13 15 15 16 17 19 19 19 19 19 19 19 19 19 19 18 17 17 17
22 22 23 24 23 21 21 18 16 16 15 15 13 12 12 10 8 8 9 9 9 10 9 10 10 10 11 11 11 12 13 14 16 16 16 17 18 18 19 20 19 19 19 19 20 20 19 18 17
Wind_Direction
11 11 17 32 36 33 12 14 18 12 5 5 2 359 2 8 9 360 3 14 353 198 200 205 192 174 162 156 156 158 151 136 127 120 107 101 96 99 108 111 109 110 111 109 108 104 104 105 103
349 353 0 11 9 356 356 9 7 356 355 2 2 356 357 3 1 358 2 2 347 212 208 213 209 194 182 175 166 169 169 163 159 138 113 103 98 95 110 106 103 102 109 109 105 102 104 105 105
332 337 337 336 325 355 3 3 356 344 348 350 351 351 352 1 360 356 357 356 335 285 231 221 215 209 202 192 186 191 193 188 193 182 157 113 109 109 114 116 100 97 103 106 101 99 103 104 104
315 318 316 308 299 342 355 342 350 342 345 344 345 345 349 356 360 355 356 357 347 277 246 238 225 218 214 205 199 206 212 214 223 233 233 207 181 172 179 186 137 92 90 93 93 93 97 101 102
302 304 298 290 291 314 332 343 357 345 342 340 341 342 349 355 357 357 355 355 357 294 247 239 235 228 223 217 213 216 221 229 237 245 244 231 222 220 245 260 278 294 23 71 74 84 87 101 111
288 292 287 289 294 302 312 325 340 340 336 334 336 343 347 347 351 349 344 340 344 318 250 238 236 228 229 228 224 223 223 229 237 247 251 245 241 235 251 268 278 294 307 326 35 98 131 128 127
277 273 273 277 283 301 326 318 318 323 326 329 333 336 339 338 348 346 335 324 323 308 254 236 234 230 231 231 229 228 226 231 235 240 249 247 241 241 256 269 287 299 305 301 305 110 139 141 132
268 267 264 267 267 284 289 291 299 311 317 323 328 330 334 335 339 340 325 315 304 291 265 244 235 233 231 229 230 230 229 234 234 235 244 247 245 244 255 260 277 297 302 293 275 182 154 149 144
266 260 258 261 270 282 272 282 300 307 309 319 325 329 330 333 339 337 322 316 304 285 267 248 241 234 230 229 228 226 228 233 234 234 239 243 248 251 255 255 270 284 289 287 275 233 186 165 161
257 249 251 255 265 277 279 287 295 300 309 313 320 323 327 331 336 330 314 308 298 281 269 254 244 238 234 231 230 228 229 233 234 231 236 238 245 251 251 257 265 274 277 273 261 240 226 198 193
247 239 242 249 257 263 276 280 287 295 300 305 312 317 321 322 327 320 307 298 293 279 270 258 254 248 237 236 233 230 229 229 230 227 233 236 242 248 250 258 265 267 266 259 254 244 235 224 219
242 237 240 247 256 262 264 272 279 285 294 301 305 312 316 315 318 317 308 300 288 278 271 258 253 249 240 237 236 233 230 229 229 226 229 233 239 246 251 257 259 263 260 255 251 248 241 228 221
240 237 239 243 253 260 263 264 269 277 287 292 295 302 308 309 308 308 304 299 289 277 273 267 256 250 244 241 238 236 233 231 229 228 232 236 239 245 249 249 251 256 255 252 247 248 241 225 228
242 238 239 244 248 252 258 261 266 274 280 285 292 296 299 305 304 306 302 298 287 276 271 265 261 248 244 241 238 235 234 232 233 233 234 236 240 244 247 247 246 247 250 248 244 243 238 230 231
241 239 240 242 243 246 258 262 269 274 280 286 291 294 292 300 302 306 303 298 287 275 267 266 260 248 242 238 235 237 235 235 237 235 235 235 238 241 242 246 243 242 242 244 246 243 235 230 230
239 238 237 237 241 244 252 255 264 272 280 287 291 295 293 296 296 305 304 295 286 276 270 263 260 247 239 234 234 233 233 234 236 236 231 229 233 237 239 242 241 240 239 239 242 236 226 223 229
238 233 228 226 233 240 247 252 259 268 278 284 285 289 293 295 298 299 300 291 278 268 268 266 262 252 242 235 231 230 232 234 236 236 231 227 229 232 234 237 236 236 233 231 231 225 219 221 224
233 228 224 223 232 243 252 256 254 264 280 282 283 289 291 299 298 296 300 295 275 263 265 265 260 255 244 235 232 227 230 232 234 235 232 228 225 226 229 230 230 228 224 223 221 216 214 211 213
226 227 226 227 233 244 245 249 249 258 273 280 284 291 293 294 298 296 296 293 283 274 269 262 258 253 242 236 232 231 232 232 236 235 228 226 224 222 224 224 227 223 220 217 213 208 208 208 210
224 226 229 233 233 237 242 247 252 259 271 275 277 283 293 298 298 293 291 290 288 283 276 264 260 252 244 238 232 229 230 231 235 235 228 225 224 221 222 226 225 221 216 211 209 205 205 208 208
224 226 229 237 239 244 248 248 253 264 267 266 269 279 291 299 295 288 288 286 285 282 275 266 259 249 239 238 234 230 227 229 229 231 226 220 218 218 221 222 220 216 210 206 205 204 204 205 207
223 227 229 233 238 240 244 249 251 254 257 263 271 281 287 291 297 292 287 284 281 279 272 263 252 245 236 235 235 230 226 222 221 222 221 220 218 217 218 219 217 215 211 208 207 205 206 207 209
223 227 228 229 236 240 242 250 248 248 253 260 267 274 281 286 291 289 284 282 279 274 266 257 240 235 237 236 231 226 221 218 220 221 221 220 219 218 216 216 217 214 211 211 210 209 210 213 212
219 225 229 227 232 237 241 248 246 249 254 256 257 266 277 287 292 292 282 276 274 266 256 247 239 236 237 234 227 223 219 218 220 221 220 219 218 215 214 216 215 213 210 210 211 212 214 216 215
215 222 226 228 233 238 240 245 248 250 252 255 261 267 276 288 290 291 287 278 266 262 252 240 238 237 233 229 228 223 219 219 219 219 220 219 218 215 213 213 213 211 210 212 214 215 215 218 215
218 223 228 231 234 237 240 247 252 251 247 248 253 261 270 279 285 288 285 278 269 256 246 236 235 234 231 227 227 223 218 219 217 218 218 218 218 214 214 213 212 210 211 214 215 216 217 219 216
217 222 227 232 234 237 238 245 251 252 247 244 250 257 270 283 287 285 285 275 266 252 240 234 230 226 225 223 224 223 221 221 221 220 219 218 218 216 214 212 211 211 214 216 216 217 220 220 220
216 220 227 231 233 235 236 243 252 259 252 252 254 253 266 283 286 284 282 269 258 245 236 235 231 229 228 225 225 223 223 223 222 220 219 217 216 214 211 212 212 213 216 216 217 220 223 223 222
214 220 226 230 234 235 239 246 255 257 254 255 262 257 271 279 278 273 274 268 260 247 236 236 237 234 231 228 224 225 225 225 221 218 220 218 216 211 209 212 212 216 219 220 221 223 226 226 226
219 224 227 229 233 238 244 248 254 250 253 255 263 271 274 274 266 269 268 264 261 250 241 239 239 239 233 233 227 223 221 220 217 216 218 217 213 212 212 213 214 217 221 224 226 227 229 229 229
Height
5897 5896 5896 5895 5895 5893 5891 5890 5889 5889 5888 5888 5888 5888 5887 5888 5887 5888 5885 5884 5884 5884 5884 5885 5886 5886 5887 5888 5889 5889 5890 5891 5892 5892 5892 5892 5892 5892 5892 5892 5892 5892 5892 5892 5892 5892 5892 5892 5892
5897 5896 5896 5895 5894 5892 5891 5890 5889 5889 5888 5887 5888 5888 5888 5887 5886 5885 5884 5884 5883 5884 5884 5885 5886 5887 5887 5888 5889 5890 5891 5892 5892 5893 5893 5893 5893 5893 5893 5893 5893 5893 5893 5893 5893 5893 5893 5893 5893
5896 5896 5896 5894 5893 5892 5891 5889 5888 5888 5888 5887 5888 5889 5888 5887 5885 5884 5884 5883 5883 5884 5884 5885 5886 5887 5888 5888 5889 5890 5891 5892 5893 5894 5894 5894 5894 5894 5894 5894 5894 5894 5894 5894 5894 5894 5894 5894 5894
5896 5895 5895 5894 5892 5891 5889 5888 5887 5887 5887 5887 5888 5888 5887 5887 5885 5884 5883 5883 5883 5883 5884 5885 5885 5886 5888 5888 5889 5890 5891 5892 5893 5894 5894 5895 5895 5895 5895 5895 5895 5894 5894 5894 5894 5894 5895 5894 5894
5895 5894 5894 5892 5891 5889 5888 5888 5886 5887 5886 5886 5886 5886 5886 5886 5885 5883 5883 5882 5882 5883 5883 5884 5885 5886 5887 5888 5889 5890 5891 5892 5893 5894 5895 5895 5895 5896 5896 5895 5895 5895 5895 5895 5895 5895 5895 5895 5895
5894 5893 5892 5891 5890 5888 5887 5887 5886 5887 5886 5886 5886 5885 5885 5885 5883 5882 5882 5882 5882 5882 5883 5883 5884 5885 5886 5888 5889 5890 5891 5892 5893 5894 5895 5895 5896 5896 5896 5896 5896 5896 5896 5896 5896 5896 5896 5896 5896
5893 5892 5890 5890 5889 5887 5886 5886 5886 5885 5885 5885 5885 5884 5884 5883 5883 5882 5881 5881 5881 5881 5882 5883 5883 5884 5886 5887 5888 5889 5890 5892 5893 5894 5894 5895 5896 5896 5896 5896 5896 5896 5896 5896 5896 5896 5896 5896 5896
5890 5891 5889 5888 5887 5885 5885 5884 5884 5885 5884 5884 5884 5883 5882 5882 5882 5881 5880 5880 5880 5881 5881 5881 5882 5883 5884 5886 5887 5888 5890 5891 5892 5893 5894 5895 5895 5896 5896 5896 5896 5896 5896 5896 5896 5896 5896 5897 5897
5888 5889 5887 5886 5885 5883 5883 5883 5883 5883 5883 5882 5883 5882 5881 5881 5881 5881 5879 5879 5879 5879 5880 5880 5881 5882 5883 5884 5886 5887 5888 5890 5891 5892 5893 5894 5895 5895 5896 5896 5896 5896 5896 5896 5896 5896 5897 5897 5897
5886 5886 5885 5884 5883 5882 5881 5882 5882 5882 5882 5882 5882 5881 5880 5880 5880 5880 5878 5877 5878 5878 5878 5879 5879 5880 5881 5883 5884 5885 5887 5888 5890 5891 5892 5893 5894 5894 5895 5895 5896 5896 5896 5896 5896 5896 5896 5897 5897
5883 5883 5882 5882 5881 5881 5880 5880 5880 5880 5880 5881 5881 5879 5878 5878 5878 5878 5877 5876 5876 5875 5876 5876 5877 5878 5879 5881 5882 5883 5885 5886 5888 5889 5890 5891 5893 5894 5894 5895 5895 5895 5895 5895 5895 5896 5896 5896 5897
5880 5880 5879 5879 5879 5879 5879 5878 5878 5878 5879 5879 5879 5878 5877 5876 5876 5876 5875 5874 5873 5873 5873 5874 5875 5876 5877 5878 5880 5881 5883 5884 5886 5887 5889 5890 5891 5892 5893 5894 5894 5894 5894 5895 5895 5895 5895 5896 5896
5876 5877 5876 5876 5876 5876 5876 5877 5876 5876 5877 5877 5876 5875 5874 5874 5874 5874 5874 5873 5871 5871 5871 5872 5873 5874 5875 5876 5877 5879 5880 5882 5884 5885 5887 5888 5889 5891 5892 5892 5893 5893 5893 5894 5894 5894 5895 5895 5896
5872 5872 5873 5873 5873 5873 5874 5875 5874 5874 5874 5874 5873 5873 5872 5871 5870 5871 5871 5870 5869 5869 5869 5869 5870 5871 5872 5873 5875 5876 5878 5879 5881 5883 5885 5886 5888 5889 5890 5891 5891 5892 5893 5893 5893 5894 5894 5895 5895
5868 5869 5870 5870 5870 5871 5871 5872 5871 5871 5871 5871 5870 5870 5870 5868 5867 5867 5867 5867 5867 5866 5867 5867 5867 5868 5869 5871 5872 5874 5875 5877 5878 5880 5882 5884 5885 5887 5888 5889 5890 5891 5892 5892 5892 5893 5893 5894 5895
5863 5865 5866 5868 5868 5868 5869 5869 5869 5868 5867 5867 5867 5867 5866 5865 5864 5864 5863 5863 5863 5863 5864 5864 5865 5865 5866 5868 5869 5871 5872 5874 5875 5877 5879 5881 5883 5884 5886 5887 5888 5889 5890 5891 5891 5892 5893 5893 5894
5859 5861 5863 5864 5864 5864 5865 5865 5866 5865 5865 5865 5865 5864 5863 5862 5861 5861 5860 5860 5860 5860 5861 5861 5861 5862 5863 5865 5866 5868 5869 5871 5873 5875 5877 5878 5880 5882 5884 5885 5886 5887 5888 5889 5890 5891 5892 5893 5893
5855 5857 5858 5859 5860 5861 5861 5862 5863 5862 5862 5862 5862 5861 5860 5860 5860 5859 5858 5856 5856 5856 5857 5858 5858 5859 5860 5861 5863 5864 5866 5868 5869 5872 5874 5876 5878 5880 5881 5883 5884 5885 5887 5888 5889 5890 5891 5892 5893
5850 5852 5853 5855 5856 5856 5857 5858 5859 5859 5859 5859 5859 5858 5858 5858 5857 5856 5855 5854 5853 5853 5853 5854 5854 5855 5856 5858 5859 5861 5863 5864 5866 5868 5870 5872 5875 5877 5879 5881 5882 5884 5885 5886 5887 5889 5890 5891 5892
5845 5847 5849 5851 5852 5853 5853 5854 5855 5855 5856 5856 5856 5856 5855 5855 5854 5853 5853 5852 5851 5850 5850 5850 5850 5851 5852 5854 5855 5857 5859 5861 5863 5865 5867 5869 5872 5874 5876 5878 5880 5882 5883 5885 5886 5888 5889 5890 5891
5841 5844 5846 5847 5848 5849 5850 5851 5852 5852 5852 5852 5853 5853 5852 5851 5850 5850 5849 5848 5847 5847 5847 5847 5847 5847 5849 5850 5852 5854 5856 5858 5860 5862 5864 5866 5869 5871 5873 5875 5877 5879 5881 5883 5884 5886 5888 5889 5890
5837 5840 5842 5843 5844 5845 5847 5847 5849 5848 5849 5849 5849 5849 5849 5849 5848 5846 5845 5845 5844 5844 5843 5842 5843 5844 5845 5847 5849 5851 5853 5855 5857 5859 5861 5863 5866 5868 5870 5872 5875 5877 5879 5881 5883 5884 5886 5887 5888
5833 5836 5838 5839 5840 5841 5842 5843 5845 5845 5845 5846 5846 5846 5846 5845 5845 5844 5843 5842 5841 5840 5839 5839 5839 5841 5842 5844 5846 5848 5850 5851 5854 5856 5858 5860 5862 5865 5867 5870 5872 5874 5877 5879 5881 5882 5884 5885 5887
5828 5831 5833 5834 5836 5837 5839 5839 5841 5840 5841 5842 5843 5843 5843 5842 5841 5840 5839 5838 5837 5836 5836 5836 5837 5838 5839 5841 5843 5845 5847 5848 5851 5853 5855 5857 5859 5862 5864 5867 5869 5872 5874 5876 5878 5880 5881 5883 5884
5823 5826 5828 5830 5831 5834 5835 5835 5837 5837 5837 5839 5840 5839 5839 5838 5838 5837 5835 5834 5833 5833 5833 5833 5834 5835 5837 5839 5840 5842 5843 5845 5847 5850 5852 5854 5856 5859 5861 5864 5866 5869 5871 5873 5875 5877 5879 5880 5882
5818 5822 5825 5827 5828 5830 5831 5831 5833 5833 5833 5834 5835 5835 5835 5834 5834 5833 5831 5830 5830 5830 5831 5831 5832 5833 5834 5836 5837 5838 5840 5842 5844 5846 5848 5851 5853 5855 5857 5860 5863 5866 5868 5870 5872 5874 5876 5878 5879
5814 5817 5820 5823 5824 5826 5826 5827 5827 5827 5828 5830 5831 5831 5832 5831 5830 5830 5828 5828 5828 5828 5829 5829 5830 5831 5832 5833 5834 5835 5837 5839 5841 5843 5845 5847 5849 5851 5854 5857 5860 5863 5865 5867 5869 5871 5873 5875 5876
5811 5814 5816 5818 5819 5821 5822 5823 5824 5824 5825 5826 5827 5827 5828 5829 5828 5827 5826 5825 5826 5826 5827 5827 5828 5828 5830 5830 5831 5832 5834 5835 5837 5839 5841 5843 5845 5848 5850 5853 5856 5859 5862 5864 5866 5868 5870 5871 5873
5806 5809 5811 5813 5815 5817 5818 5822 5821 5821 5822 5822 5823 5823 5824 5825 5825 5824 5823 5823 5823 5824 5824 5824 5825 5826 5827 5827 5828 5829 5830 5831 5833 5835 5837 5839 5842 5844 5847 5850 5853 5856 5858 5861 5863 5865 5867 5868 5870
5802 5804 5807 5809 5811 5813 5815 5819 5817 5817 5818 5818 5820 5821 5821 5821 5821 5821 5820 5820 5820 5821 5821 5821 5822 5822 5823 5824 5825 5825 5826 5828 5830 5832 5834 5836 5838 5841 5844 5847 5849 5852 5855 5857 5859 5861 5863 5865 5866